Weather History for KCHA - January, 2013

Change the Weather History Date:

Friday, January 11, 2013

  Actual Average Record
Temperature  
Mean Temperature 65 °F 40 °F  
Max Temperature 68 °F 50 °F 78 °F (1949)
Min Temperature 61 °F 31 °F -7 °F (1886)
Degree Days  
Heating Degree Days 0 25  
Month to date heating degree days 209 275  
Since 1 July heating degree days 1348 1559  
Cooling Degree Days 0 0  
Month to date cooling degree days 0 0  
Year to date cooling degree days 0 0  
Growing Degree Days 12 (Base 50)    
Moisture  
Dew Point 62 °F    
Average Humidity 89    
Maximum Humidity 100    
Minimum Humidity 78    
Precipitation  
Precipitation 0.38 in 0.16 in 2.31 in (1879)
Month to date precipitation 1.47 1.70  
Year to date precipitation 1.47 1.70  
Snow  
Snow 0.00 in 0.00 in - ()
Month to date snowfall 0.0 0.5  
Since 1 July snowfall T 0.8  
Snow Depth 0.00 in    
Sea Level Pressure  
Sea Level Pressure 30.10 in    
Wind  
Wind Speed 7 mph (South)    
Max Wind Speed 22 mph    
Max Gust Speed 39 mph    
Visibility 5 miles    
Events Rain    
T = Trace of Precipitation, MM = Missing Value Source: NWS Daily Summary

Daily Weather History Graph

Daily Weather History Graph

Search for Another Location

Airport or City:

Trip Planner

Search our weather history database for the weather conditions in past years. The results will help you decide how hot, cold, wet, or windy it might be!

Date:

Astronomy

Jan. 11, 2013 Rise Set
Actual Time 7:49 AM EST 5:48 PM EST
Civil Twilight 7:21 AM EST 6:16 PM EST
Nautical Twilight 6:50 AM EST 6:47 PM EST
Astronomical Twilight 6:19 AM EST 7:18 PM EST
Moon 7:23 AM EST (1/11) 6:03 PM EST (1/11)
Length of Visible Light 10h 55m
Length of Day
9h 59m
Waning Crescent, 0% of the Moon is Illuminated
Jan 11
Waning Crescent
Jan 11
New
Jan 18
First Quarter
Jan 26
Full
Feb 3
Last Quarter

Hourly Weather History & Observations

Time (EST) Temp. Dew Point Humidity Pressure Visibility Wind Dir Wind Speed Gust Speed Precip Events Conditions
12:53 AM 64.0 °F 57.9 °F 80% 30.12 in 9.0 mi SE 13.8 mph 26.5 mph 0.00 in   Overcast
1:53 AM 64.0 °F 57.9 °F 80% 30.12 in 10.0 mi SSE 16.1 mph 26.5 mph N/A   Overcast
2:53 AM 64.0 °F 59.0 °F 84% 30.12 in 10.0 mi SSE 12.7 mph 19.6 mph N/A   Overcast
3:53 AM 64.0 °F 60.1 °F 87% 30.10 in 10.0 mi SSE 8.1 mph 17.3 mph N/A   Overcast
4:53 AM 64.0 °F 60.1 °F 87% 30.09 in 10.0 mi South 10.4 mph - N/A   Overcast
5:53 AM 64.0 °F 61.0 °F 90% 30.09 in 8.0 mi SSE 9.2 mph - 0.00 in   Overcast
6:06 AM 64.4 °F 60.8 °F 88% 30.10 in 4.0 mi South 8.1 mph - 0.00 in Rain Light Rain
6:25 AM 62.6 °F 60.8 °F 94% 30.10 in 7.0 mi South 5.8 mph - 0.02 in Rain Light Rain
6:53 AM 62.6 °F 60.8 °F 94% 30.10 in 8.0 mi South 4.6 mph - N/A   Light Drizzle
7:53 AM 61.0 °F 61.0 °F 100% 30.11 in 4.0 mi South 3.5 mph - 0.02 in   Overcast
8:19 AM 62.6 °F 62.6 °F 100% 30.12 in 2.0 mi SSW 5.8 mph - 0.00 in Rain Light Rain
8:26 AM 62.6 °F 62.6 °F 100% 30.12 in 2.0 mi SSW 4.6 mph - 0.05 in Rain Light Rain
8:53 AM 63.0 °F 62.1 °F 97% 30.12 in 2.0 mi South 8.1 mph - 0.06 in   Overcast
8:55 AM 62.6 °F 62.6 °F 100% 30.13 in 1.5 mi South 8.1 mph - 0.00 in Rain Light Rain
9:51 AM 62.6 °F 62.6 °F 100% 30.15 in 2.0 mi South 8.1 mph - 0.01 in   Overcast
9:53 AM 63.0 °F 62.1 °F 97% 30.14 in 2.0 mi South 8.1 mph - 0.01 in Rain Light Rain
10:53 AM 64.0 °F 63.0 °F 96% 30.14 in 2.0 mi South 6.9 mph - 0.01 in   Overcast
11:00 AM 64.4 °F 62.6 °F 94% 30.16 in 3.0 mi South 5.8 mph - N/A   Overcast
11:53 AM 64.0 °F 63.0 °F 96% 30.12 in 3.0 mi South 6.9 mph - 0.00 in   Overcast
12:34 PM 64.4 °F 62.6 °F 94% 30.11 in 6.0 mi South 6.9 mph 16.1 mph N/A   Overcast
12:53 PM 66.0 °F 63.0 °F 90% 30.09 in 7.0 mi South 8.1 mph - N/A   Overcast
1:53 PM 66.9 °F 63.0 °F 87% 30.08 in 10.0 mi South 8.1 mph - N/A   Overcast
2:39 PM 68.0 °F 62.6 °F 83% 30.08 in 10.0 mi South 8.1 mph - N/A   Mostly Cloudy
2:53 PM 66.2 °F 62.6 °F 88% 30.09 in 10.0 mi South 10.4 mph - N/A   Mostly Cloudy
3:53 PM 66.9 °F 63.0 °F 87% 30.07 in 10.0 mi South 8.1 mph - N/A   Mostly Cloudy
4:44 PM 66.2 °F 62.6 °F 88% 30.08 in 10.0 mi South 8.1 mph - N/A   Overcast
4:53 PM 66.0 °F 63.0 °F 90% 30.07 in 10.0 mi South 6.9 mph - N/A   Overcast
5:42 PM 64.4 °F 64.4 °F 100% 30.09 in 2.5 mi SSW 6.9 mph - 0.01 in Rain Light Rain
5:49 PM 64.4 °F 64.4 °F 100% 30.10 in 1.5 mi South 3.5 mph - 0.01 in Rain Light Rain
5:53 PM 64.0 °F 64.0 °F 100% 30.09 in 1.5 mi South 3.5 mph - 0.03 in Rain Light Rain
6:27 PM 64.4 °F 64.4 °F 100% 30.10 in 2.5 mi SSE 3.5 mph - 0.04 in Rain Light Rain
6:53 PM 64.0 °F 64.0 °F 100% 30.09 in 5.0 mi South 3.5 mph - 0.05 in   Mostly Cloudy
7:53 PM 64.0 °F 64.0 °F 100% 30.09 in 4.0 mi South 4.6 mph - 0.01 in Rain Light Rain
8:53 PM 64.0 °F 64.0 °F 100% 30.10 in 4.0 mi SSE 5.8 mph - 0.03 in Rain Light Rain
9:53 PM 64.0 °F 64.0 °F 100% 30.10 in 4.0 mi Calm Calm - 0.04 in Rain Light Rain
10:10 PM 64.4 °F 64.4 °F 100% 30.11 in 2.5 mi Calm Calm - 0.00 in Rain Light Rain
10:25 PM 64.4 °F 64.4 °F 100% 30.11 in 2.0 mi Calm Calm - 0.01 in Rain Light Rain
10:53 PM 63.0 °F 63.0 °F 100% 30.10 in 1.5 mi Calm Calm - 0.06 in Rain Light Rain
11:02 PM 62.6 °F 62.6 °F 100% 30.11 in 1.0 mi Calm Calm - N/A Rain Light Rain
11:42 PM 64.4 °F 64.4 °F 100% 30.10 in 1.5 mi SSE 3.5 mph - 0.03 in Rain Light Rain
11:51 PM 64.4 °F 64.4 °F 100% 30.10 in 2.0 mi South 4.6 mph - 0.04 in Rain Light Rain
11:53 PM 64.0 °F 64.0 °F 100% 30.09 in 2.0 mi South 3.5 mph - 0.04 in   Overcast